This is the latest recevied weather packets stored in our database for station/object N1JOV-7. If no packets are shown the sender has not sent any weather packets the latest 10 day(s).
| Time | Temp. | Humidity | Pressure | Rain* | Wind** | Luminosity | Snow |
|---|---|---|---|---|---|---|---|
| 1788617461 | 20° C | 78% | 1010.8 hPa | 0 mm | - | - | - |
| 1788616861 | 20° C | 79% | 1010.6 hPa | 0 mm | - | - | - |
| 1788616261 | 18.89° C | 82% | 1010.8 hPa | 0 mm | - | - | - |
| 1788615669 | 18.89° C | 82% | 1010.8 hPa | 0 mm | - | - | - |
| 1788615061 | 18.89° C | 82% | 1010.4 hPa | 0 mm | - | - | - |
| 1788614461 | 18.89° C | 84% | 1010.4 hPa | 0 mm | - | - | - |
| 1788613862 | 18.33° C | 85% | 1010.3 hPa | 0 mm | - | - | - |
| 1788613262 | 18.33° C | 86% | 1010.3 hPa | 0 mm | - | - | - |
| 1788612662 | 17.78° C | 87% | 1010.3 hPa | 0 mm | - | - | - |
| 1788612062 | 17.78° C | 88% | 1010.4 hPa | 0 mm | - | - | - |
| 1788611461 | 17.78° C | 85% | 1010.3 hPa | 0 mm | - | - | - |
| 1788610861 | 18.33° C | 84% | 1010.3 hPa | 0 mm | - | - | - |
| 1788610261 | 18.33° C | 84% | 1010 hPa | 0 mm | - | - | - |
| 1788609661 | 17.78° C | 84% | 1010 hPa | 0 mm | - | - | - |
| 1788609061 | 17.78° C | 85% | 1010 hPa | 0 mm | - | - | - |
| 1788608461 | 17.78° C | 85% | 1009.9 hPa | 0 mm | - | - | - |
| 1788607861 | 17.22° C | 86% | 1009.9 hPa | 0 mm | - | - | - |
| 1788607262 | 17.22° C | 87% | 1009.7 hPa | 0 mm | - | - | - |
| 1788606662 | 16.67° C | 88% | 1009.7 hPa | 0 mm | - | - | - |
| 1788606079 | 16.67° C | 88% | 1009.5 hPa | 0 mm | - | - | - |
| 1788605462 | 16.67° C | 88% | 1009.5 hPa | 0 mm | - | - | - |
| 1788604862 | 16.67° C | 88% | 1009.3 hPa | 0 mm | - | - | - |
| 1788604261 | 16.67° C | 89% | 1009.3 hPa | 0 mm | - | - | - |
| 1788603661 | 16.11° C | 89% | 1009.2 hPa | 0 mm | - | - | - |
| 1788603061 | 16.11° C | 90% | 1009.3 hPa | 0 mm | - | - | - |
* Rain latest hour (hover to see other rain measurements)
** Current wind speed in m/s (hover to see current wind gust speed)